DW1174 Weather Reports


Display with metric or nautical units.
time (UTC)temp
F
wind
direction
speed
MPH
gust
MPH
rain 1hr
in
rain 24hr
in
rain mn
in
humidity
%
barometer
mb
20260903050230 83 219 1.0 4.0 0.00 0.00 0.00 79 1012.7
20260903045449 82 242 1.0 5.0 0.00 0.00 0.00 79 1012.5
20260903045146 82 264 1.0 5.0 0.00 0.00 0.00 80 1012.4
20260903044425 82 194 0.0 2.0 0.00 0.00 0.00 80 1012.3
20260903044138 82 194 0.0 3.0 0.00 0.00 0.00 80 1012.3
20260903043421 82 194 0.0 3.0 0.00 0.00 0.00 80 1012.3
20260903042902 82 194 1.0 2.0 0.00 0.00 0.00 80 1012.2
20260903042621 81 194 1.0 4.0 0.00 0.00 0.00 80 1012.1
20260903041850 81 143 0.0 4.0 0.00 0.00 0.00 81 1012.0
20260903041346 81 143 0.0 0.0 0.00 0.00 0.00 81 1011.9
20260903040843 81 141 0.0 3.0 0.00 0.00 0.00 81 1011.9
20260903040326 81 141 0.0 3.0 0.00 0.00 0.00 81 1011.9
20260903035817 81 141 0.0 0.0 0.00 0.00 0.00 81 1011.7
20260903035313 81 141 0.0 0.0 0.00 0.00 0.00 81 1011.8
20260903035037 81 141 0.0 0.0 0.00 0.00 0.00 81 1011.8
20260903034510 81 141 0.0 0.0 0.00 0.00 0.00 81 1011.7
20260903033749 81 141 0.0 0.0 0.00 0.00 0.00 81 1011.6
20260903033220 80 141 0.0 0.0 0.00 0.00 0.00 81 1011.3
20260903032708 80 141 0.0 4.0 0.00 0.00 0.00 82 1011.3
20260903032212 80 141 0.0 4.0 0.00 0.00 0.00 81 1011.3
20260903031647 81 140 0.0 0.0 0.00 0.00 0.00 81 1011.4
20260903031145 81 140 0.0 0.0 0.00 0.00 0.00 80 1011.5
20260903030636 82 140 0.0 4.0 0.00 0.00 0.00 80 1011.7
20260903030131 82 140 0.0 4.0 0.00 0.00 0.00 79 1011.7
20260903025629 82 140 0.0 0.0 0.00 0.00 0.00 79 1011.8
20260903025358 82 140 0.0 3.0 0.00 0.00 0.00 78 1012.1
20260903024618 82 140 0.0 3.0 0.00 0.00 0.00 78 1012.3
20260903024339 82 140 0.0 0.0 0.00 0.00 0.00 78 1012.4
20260903023615 83 140 0.0 0.0 0.00 0.00 0.00 78 1012.6
20260903023113 83 139 0.0 0.0 0.00 0.00 0.00 77 1012.6
20260903022557 83 139 0.0 0.0 0.00 0.00 0.00 77 1012.8
20260903022545 83 140 0.0 1.0 0.00 0.00 0.00 77 1012.8
20260903021544 83 139 0.0 1.0 0.00 0.00 0.00 76 1012.8
20260903021040 83 139 0.0 0.0 0.00 0.00 0.00 76 1012.8
20260903020521 83 139 0.0 0.0 0.00 0.00 0.00 76 1012.8
20260903020003 83 139 0.0 0.0 0.00 0.00 0.00 76 1012.7
20260903015458 84 139 0.0 0.0 0.00 0.00 0.00 75 1012.7
20260903014951 84 139 0.0 0.0 0.00 0.00 0.00 75 1012.7
20260903014447 84 139 0.0 0.0 0.00 0.00 0.00 75 1012.6
20260903013941 84 138 0.0 0.0 0.00 0.00 0.00 75 1012.6
20260903013439 84 138 0.0 0.0 0.00 0.00 0.00 74 1012.6
20260903012935 84 138 0.0 0.0 0.00 0.00 0.00 74 1012.6
20260903012417 84 138 0.0 0.0 0.00 0.00 0.00 74 1012.7
20260903011911 85 138 0.0 0.0 0.00 0.00 0.00 73 1012.8
20260903011348 85 138 0.0 0.0 0.00 0.00 0.00 73 1012.9
20260903010844 85 138 0.0 0.0 0.00 0.00 0.00 72 1012.7
20260903010340 85 138 0.0 0.0 0.00 0.00 0.00 72 1012.8
20260903005835 85 138 0.0 0.0 0.00 0.00 0.00 72 1012.8
20260903005334 85 138 0.0 1.0 0.00 0.00 0.00 71 1012.9
20260903005106 85 90 0.0 1.0 0.00 0.00 0.00 71 1012.8
20260903004008 85 90 0.0 0.0 0.00 0.00 0.00 71 1012.7
20260903003243 85 89 0.0 0.0 0.00 0.00 0.00 70 1012.7
20260903002956 85 89 0.0 0.0 0.00 0.00 0.00 70 1012.6
20260903002448 85 89 0.0 0.0 0.00 0.00 0.00 70 1012.5
20260903001715 85 89 0.0 2.0 0.00 0.00 0.00 70 1012.4
20260903001210 85 89 0.0 2.0 0.00 0.00 0.00 70 1012.5
20260903000707 85 179 0.0 0.0 0.00 0.00 0.00 70 1012.5
20260903000149 85 179 0.0 0.0 0.00 0.00 0.00 70 1012.6
20260902235635 85 179 0.0 0.0 0.00 0.00 0.00 70 1012.6
20260902235132 86 180 0.0 0.0 0.00 0.00 0.00 70 1012.7
20260902234614 86 180 0.0 0.0 0.00 0.00 0.00 70 1012.8
20260902234105 86 180 0.0 0.0 0.00 0.00 0.00 69 1012.5
20260902233609 86 180 0.0 0.0 0.00 0.00 0.00 69 1012.4
20260902233046 86 180 0.0 2.0 0.00 0.00 0.00 69 1012.5
20260902232537 86 180 0.0 2.0 0.00 0.00 0.00 70 1012.4
20260902232240 86 179 0.0 0.0 0.00 0.00 0.00 73 1012.4
20260902231505 86 179 0.0 0.0 0.00 0.00 0.00 73 1012.4
20260902230956 86 179 0.0 0.0 0.00 0.00 0.00 74 1012.4
20260902230453 86 179 0.0 0.0 0.00 0.00 0.00 76 1012.4
20260902225953 87 179 0.0 0.0 0.00 0.00 0.00 76 1012.6
20260902225439 87 179 0.0 0.0 0.00 0.00 0.00 75 1012.6
20260902224940 87 179 0.0 0.0 0.00 0.00 0.00 75 1012.8
20260902224432 87 179 0.0 0.0 0.00 0.00 0.00 73 1012.8
20260902223934 88 179 0.0 0.0 0.00 0.00 0.00 73 1012.8
20260902223409 88 179 0.0 4.0 0.00 0.00 0.00 71 1012.7
20260902222903 89 179 0.0 4.0 0.00 0.00 0.00 70 1012.8
20260902222401 89 181 0.0 0.0 0.00 0.00 0.00 71 1012.8
20260902222318 89 181 0.0 0.0 0.00 0.00 0.00 69 1012.9
20260902221339 89 180 0.0 0.0 0.00 0.00 0.00 69 1012.9
20260902220806 90 180 0.0 0.0 0.00 0.00 0.00 69 1012.9
20260902220308 90 180 0.0 0.0 0.00 0.00 0.00 68 1012.7
20260902215747 90 180 0.0 0.0 0.00 0.00 0.00 68 1012.8
20260902215243 90 178 0.0 0.0 0.00 0.00 0.00 67 1012.7
20260902214719 90 182 0.0 0.0 0.00 0.00 0.00 66 1012.6
20260902214211 91 182 0.0 0.0 0.00 0.00 0.00 65 1012.6
20260902213709 91 181 0.0 2.0 0.00 0.00 0.00 65 1012.7
20260902213205 91 181 0.0 2.0 0.00 0.00 0.00 66 1012.7
20260902212706 91 181 0.0 2.0 0.00 0.00 0.00 65 1012.7
20260902212145 91 182 0.0 1.0 0.00 0.00 0.00 66 1012.8
20260902211641 91 182 0.0 3.0 0.00 0.00 0.00 65 1013.0
20260902211138 91 182 0.0 4.0 0.00 0.00 0.00 64 1013.0
20260902210635 91 173 0.0 4.0 0.00 0.00 0.00 63 1013.1
20260902210132 92 58 0.0 0.0 0.00 0.00 0.00 64 1013.1
20260902205622 92 58 0.0 3.0 0.00 0.00 0.00 64 1013.1
20260902205339 92 58 0.0 3.0 0.00 0.00 0.00 62 1013.2
20260902204616 92 38 0.0 0.0 0.00 0.00 0.00 63 1013.3
20260902204106 92 38 0.0 0.0 0.00 0.00 0.00 63 1013.4
20260902203603 92 34 0.0 4.0 0.00 0.00 0.00 63 1013.5
20260902203103 92 34 0.0 4.0 0.00 0.00 0.00 62 1013.5
20260902202603 92 5 0.0 2.0 0.00 0.00 0.00 62 1013.6
20260902202306 92 5 0.0 0.0 0.00 0.00 0.00 62 1013.6
20260902201531 92 5 0.0 0.0 0.00 0.00 0.00 62 1013.7
20260902201010 92 5 0.0 2.0 0.00 0.00 0.00 63 1013.8
20260902200503 92 5 0.0 2.0 0.00 0.00 0.00 60 1013.8
20260902195947 92 5 0.0 1.0 0.00 0.00 0.00 60 1014.1
20260902195433 92 5 0.0 5.0 0.00 0.00 0.00 60 1014.0
20260902195416 92 5 1.0 5.0 0.00 0.00 0.00 59 1014.0
20260902194414 92 9 1.0 3.0 0.00 0.00 0.00 58 1013.9
20260902193911 92 278 1.0 3.0 0.00 0.00 0.00 61 1013.9
20260902193411 92 278 0.0 3.0 0.00 0.00 0.00 60 1014.1
20260902193120 93 278 0.0 2.0 0.00 0.00 0.00 59 1014.3
20260902192401 93 278 0.0 2.0 0.00 0.00 0.00 57 1014.3
20260902191852 93 182 1.0 6.0 0.00 0.00 0.00 57 1014.3
20260902191348 93 181 1.0 6.0 0.00 0.00 0.00 57 1014.5
20260902190832 93 154 1.0 4.0 0.00 0.00 0.00 56 1014.4
20260902190329 93 142 2.0 4.0 0.00 0.00 0.00 56 1014.3
20260902185829 93 198 2.0 4.0 0.00 0.00 0.00 57 1014.5
20260902185329 93 146 1.0 6.0 0.00 0.00 0.00 57 1014.4
20260902184818 93 125 1.0 6.0 0.00 0.00 0.00 55 1014.6
20260902184322 93 155 1.0 6.0 0.00 0.00 0.00 55 1014.6
20260902183805 94 155 1.0 6.0 0.00 0.00 0.00 55 1014.5
20260902183304 94 155 1.0 3.0 0.00 0.00 0.00 55 1014.6
20260902183020 94 150 1.0 2.0 0.00 0.00 0.00 56 1014.6
20260902182250 94 150 1.0 3.0 0.00 0.00 0.00 58 1014.7
20260902181732 94 150 1.0 3.0 0.00 0.00 0.00 60 1014.7
20260902181448 93 149 1.0 4.0 0.00 0.00 0.00 60 1014.8
20260902180732 93 149 1.0 4.0 0.00 0.00 0.00 60 1014.8
20260902180224 93 147 1.0 9.0 0.00 0.00 0.00 60 1015.0
20260902175709 93 147 1.0 9.0 0.00 0.00 0.00 61 1014.9
20260902175203 93 207 0.0 2.0 0.00 0.00 0.00 62 1015.1
20260902174655 93 206 0.0 3.0 0.00 0.00 0.00 63 1015.2
20260902174419 92 206 0.0 3.0 0.00 0.00 0.00 63 1015.1
20260902173654 92 271 1.0 4.0 0.00 0.00 0.00 64 1015.3
20260902173133 92 270 1.0 4.0 0.00 0.00 0.00 62 1015.3
20260902172600 92 257 0.0 3.0 0.00 0.00 0.00 64 1015.4
20260902172315 91 192 0.0 3.0 0.00 0.00 0.00 65 1015.3
20260902171812 91 192 1.0 3.0 0.00 0.00 0.00 66 1015.4
20260902171258 91 175 0.0 2.0 0.00 0.00 0.00 66 1015.4
20260902170526 91 175 0.0 3.0 0.00 0.00 0.00 68 1015.4
20260902170020 90 175 1.0 3.0 0.00 0.00 0.00 67 1015.4
20260902165458 89 173 1.0 3.0 0.00 0.00 0.00 68 1015.2
20260902164957 89 173 1.0 4.0 0.00 0.00 0.00 68 1015.4
20260902164446 89 173 1.0 3.0 0.00 0.00 0.00 69 1015.4
20260902163926 89 173 1.0 4.0 0.00 0.00 0.00 69 1015.5
20260902163904 89 165 1.0 4.0 0.00 0.00 0.00 69 1015.5
20260902162853 89 275 1.0 3.0 0.00 0.00 0.00 70 1015.5
20260902162341 89 275 1.0 4.0 0.00 0.00 0.00 70 1015.5
20260902161826 89 275 1.0 4.0 0.00 0.00 0.00 71 1015.6
20260902161548 88 279 1.0 4.0 0.00 0.00 0.00 71 1015.6
20260902160821 88 303 1.0 3.0 0.00 0.00 0.00 72 1015.5
20260902160323 88 304 1.0 3.0 0.00 0.00 0.00 72 1015.5
20260902155818 88 302 1.0 6.0 0.00 0.00 0.00 72 1015.4
20260902155539 88 194 1.0 6.0 0.00 0.00 0.00 71 1015.6
20260902154756 87 333 1.0 5.0 0.00 0.00 0.00 72 1015.7
20260902154253 87 146 1.0 7.0 0.00 0.00 0.00 73 1015.6
20260902153752 87 142 2.0 7.0 0.00 0.00 0.00 74 1015.7
20260902153256 87 182 2.0 6.0 0.00 0.00 0.00 72 1015.7
20260902152749 87 280 0.0 6.0 0.00 0.00 0.00 75 1015.8
20260902152250 87 288 1.0 3.0 0.00 0.00 0.00 74 1015.7
20260902151744 87 299 1.0 4.0 0.00 0.00 0.00 75 1015.6
20260902151454 87 297 1.0 4.0 0.00 0.00 0.00 76 1015.7
20260902150723 87 252 1.0 4.0 0.00 0.00 0.00 75 1015.6
20260902150225 86 239 0.0 2.0 0.00 0.00 0.00 78 1015.6
20260902145704 86 239 0.0 2.0 0.00 0.00 0.00 79 1015.6
20260902145643 85 234 0.0 0.0 0.00 0.00 0.00 78 1015.4
20260902144648 85 231 0.0 0.0 0.00 0.00 0.00 80 1015.3
20260902144129 84 231 0.0 2.0 0.00 0.00 0.00 81 1015.3
20260902143624 84 231 0.0 2.0 0.00 0.00 0.00 81 1015.3
20260902143120 84 230 1.0 4.0 0.00 0.00 0.00 81 1015.2
20260902142554 83 230 0.0 4.0 0.00 0.00 0.00 82 1015.2
20260902142039 83 234 0.0 2.0 0.00 0.00 0.00 83 1015.2
20260902141458 82 234 0.0 2.0 0.00 0.00 0.00 84 1015.2
20260902141434 82 239 0.0 0.0 0.00 0.00 0.00 85 1015.0
20260902140452 82 239 0.0 0.0 0.00 0.00 0.00 86 1014.9
20260902135947 81 239 0.0 0.0 0.00 0.00 0.00 86 1014.9
20260902135425 81 239 0.0 0.0 0.00 0.00 0.00 88 1014.9
20260902134921 80 239 0.0 0.0 0.00 0.00 0.00 88 1014.9
20260902134408 80 244 0.0 0.0 0.00 0.00 0.00 89 1014.8
20260902133850 80 243 0.0 0.0 0.00 0.00 0.00 89 1014.9
20260902133345 80 242 1.0 5.0 0.00 0.00 0.00 90 1014.9
20260902132836 79 242 1.0 5.0 0.00 0.00 0.00 90 1014.8
20260902132320 79 256 0.0 0.0 0.00 0.00 0.00 91 1014.7
20260902131819 78 256 0.0 0.0 0.00 0.00 0.00 92 1014.7
20260902131513 78 256 0.0 0.0 0.00 0.00 0.00 93 1014.7
20260902131003 78 256 0.0 0.0 0.00 0.00 0.00 93 1014.7
20260902130218 77 256 0.0 0.0 0.00 0.00 0.00 93 1014.5
20260902125716 77 256 0.0 0.0 0.00 0.00 0.00 93 1014.6
20260902125208 77 256 0.0 0.0 0.00 0.00 0.00 93 1014.5
20260902124650 77 256 0.0 0.0 0.00 0.00 0.00 94 1014.6
20260902124146 77 256 0.0 0.0 0.00 0.00 0.00 94 1014.6
20260902123636 76 256 0.0 0.0 0.00 0.00 0.00 94 1014.6
20260902123133 76 256 0.0 0.0 0.00 0.00 0.00 94 1014.7
20260902122618 76 256 0.0 0.0 0.00 0.00 0.00 94 1014.6
20260902122118 76 256 0.0 0.0 0.00 0.00 0.00 94 1014.5
20260902121607 76 256 0.0 0.0 0.00 0.00 0.00 94 1014.3
20260902121049 76 256 0.0 0.0 0.00 0.00 0.00 94 1014.4
20260902120815 76 256 0.0 0.0 0.00 0.00 0.00 94 1014.5
20260902120254 76 256 0.0 0.0 0.00 0.00 0.00 94 1014.4
20260902115520 76 256 0.0 0.0 0.00 0.00 0.00 95 1014.3
20260902115006 76 256 0.0 0.0 0.00 0.00 0.00 95 1014.4
20260902114947 76 256 0.0 0.0 0.00 0.00 0.00 95 1014.4
20260902114223 76 256 0.0 0.0 0.00 0.00 0.00 95 1014.1
20260902113453 75 256 0.0 0.0 0.00 0.00 0.00 95 1014.1
20260902113212 75 256 0.0 0.0 0.00 0.00 0.00 95 1013.9
20260902112443 75 256 0.0 0.0 0.00 0.00 0.00 96 1013.7
20260902111945 75 256 1.0 3.0 0.00 0.00 0.00 96 1013.6
20260902111428 75 256 2.0 4.0 0.00 0.00 0.00 96 1013.4
20260902110923 75 256 1.0 4.0 0.00 0.00 0.00 96 1013.3
20260902110416 75 259 0.0 1.0 0.00 0.00 0.00 96 1013.4
20260902105916 75 259 1.0 3.0 0.00 0.00 0.00 96 1013.5
20260902105624 74 259 2.0 4.0 0.00 0.00 0.00 96 1013.5
20260902104900 74 259 3.0 4.0 0.00 0.00 0.00 96 1013.4
20260902104403 74 259 1.0 4.0 0.00 0.00 0.00 96 1013.5
20260902103845 74 259 0.0 0.0 0.00 0.00 0.00 96 1013.4
20260902103550 74 261 0.0 3.0 0.00 0.00 0.00 96 1013.4
20260902102820 74 261 0.0 3.0 0.00 0.00 0.00 95 1013.5
20260902102317 74 261 0.0 0.0 0.00 0.00 0.00 95 1013.5
20260902102255 74 261 0.0 0.0 0.00 0.00 0.00 95 1013.4
20260902101256 74 262 0.0 0.0 0.00 0.00 0.00 95 1013.3
20260902100755 74 262 0.0 0.0 0.00 0.00 0.00 95 1013.3
20260902100507 74 262 0.0 0.0 0.00 0.00 0.00 95 1013.3
20260902095721 74 262 1.0 3.0 0.00 0.00 0.00 95 1013.4
20260902095204 74 262 2.0 4.0 0.00 0.00 0.00 95 1013.3
20260902094704 74 262 1.0 4.0 0.00 0.00 0.00 95 1013.4
20260902094158 74 262 0.0 0.0 0.00 0.00 0.00 95 1013.4
20260902093650 74 262 0.0 0.0 0.00 0.00 0.00 94 1013.5
20260902093143 74 262 0.0 0.0 0.00 0.00 0.00 94 1013.5
20260902092639 74 262 0.0 0.0 0.00 0.00 0.00 94 1013.6
20260902092144 74 262 0.0 0.0 0.00 0.00 0.00 93 1013.6
20260902091832 74 262 0.0 0.0 0.00 0.00 0.00 93 1013.6
20260902091106 74 262 1.0 3.0 0.00 0.00 0.00 93 1013.6
20260902090543 74 263 2.0 4.0 0.00 0.00 0.00 93 1013.7
20260902090027 74 262 3.0 4.0 0.00 0.00 0.00 93 1013.6
20260902085513 74 264 3.0 4.0 0.00 0.00 0.00 92 1013.8
20260902085008 74 264 2.0 4.0 0.00 0.00 0.00 92 1013.7
20260902084436 74 264 1.0 4.0 0.00 0.00 0.00 93 1013.7
20260902083929 74 264 0.0 0.0 0.00 0.00 0.00 93 1013.8
20260902083426 74 264 0.0 3.0 0.00 0.00 0.00 93 1013.9
20260902083142 74 264 2.0 3.0 0.00 0.00 0.00 93 1013.9
20260902082416 74 264 3.0 3.0 0.00 0.00 0.00 93 1013.8
20260902081847 74 264 2.0 3.0 0.00 0.00 0.00 93 1013.8
20260902081320 74 264 1.0 3.0 0.00 0.00 0.00 93 1013.7
20260902081039 74 264 0.0 1.0 0.00 0.00 0.00 93 1013.7
20260902080241 74 264 0.0 0.0 0.00 0.00 0.00 93 1013.7
20260902075742 74 264 0.0 0.0 0.00 0.00 0.00 93 1013.7
20260902075220 73 264 0.0 0.0 0.00 0.00 0.00 93 1013.7
20260902074714 73 264 0.0 0.0 0.00 0.00 0.00 93 1013.7
20260902074424 73 264 0.0 0.0 0.00 0.00 0.00 93 1013.8
20260902073645 73 264 0.0 0.0 0.00 0.00 0.00 93 1013.8
20260902073140 73 264 0.0 0.0 0.00 0.00 0.00 93 1013.8
20260902072615 73 264 0.0 0.0 0.00 0.00 0.00 93 1013.8
20260902072041 73 264 0.0 0.0 0.00 0.00 0.00 92 1013.8
20260902071538 73 264 0.0 0.0 0.00 0.00 0.00 92 1013.8
20260902071013 74 264 0.0 0.0 0.00 0.00 0.00 92 1013.9
20260902070504 74 264 0.0 0.0 0.00 0.00 0.00 92 1013.8
20260902070002 74 264 0.0 0.0 0.00 0.00 0.00 92 1013.9
20260902065502 74 264 0.0 0.0 0.00 0.00 0.00 92 1013.9
20260902064948 74 264 0.0 0.0 0.00 0.00 0.00 92 1013.9
20260902064930 74 264 0.0 0.0 0.00 0.00 0.00 91 1013.8
20260902063935 74 264 0.0 0.0 0.00 0.00 0.00 91 1013.9
20260902063429 74 264 0.0 0.0 0.00 0.00 0.00 91 1014.1
20260902063145 74 264 0.0 0.0 0.00 0.00 0.00 91 1014.1
20260902062406 74 264 0.0 0.0 0.00 0.00 0.00 91 1014.3
20260902062107 74 264 0.0 0.0 0.00 0.00 0.00 91 1014.3
20260902061333 74 264 0.0 0.0 0.00 0.00 0.00 91 1014.3
20260902060814 74 264 0.0 0.0 0.00 0.00 0.00 91 1014.4
20260902060508 74 264 0.0 0.0 0.00 0.00 0.00 91 1014.4
20260902055738 74 264 0.0 0.0 0.00 0.00 0.00 91 1014.3
20260902055508 74 264 0.0 0.0 0.00 0.00 0.00 91 1014.3
20260902054706 74 264 0.0 0.0 0.00 0.00 0.00 91 1014.3
20260902054205 74 264 0.0 0.0 0.00 0.00 0.00 91 1014.1
20260902053645 73 264 0.0 0.0 0.00 0.00 0.00 92 1014.3
20260902053135 73 264 0.0 0.0 0.00 0.00 0.00 91 1014.0
20260902052632 73 264 0.0 0.0 0.00 0.00 0.00 91 1014.1
20260902052128 74 264 0.0 0.0 0.00 0.00 0.00 91 1014.0
20260902051615 74 264 0.0 0.0 0.00 0.00 0.00 91 1014.0
20260902051109 74 264 0.0 0.0 0.00 0.00 0.00 90 1014.0
20260902050549 74 264 0.0 0.0 0.00 0.00 0.00 90 1014.0